Weather History for West Palm Beach, FL

Change the Weather History Date:

Sunday, August 10, 2014

  Actual Average Record
Temperature  
Mean Temperature 85 °F 83 °F  
Max Temperature 93 °F 90 °F 98 °F (1917)
Min Temperature 76 °F 76 °F 69 °F (1922)
Degree Days  
Heating Degree Days 0 0  
Month to date heating degree days 0 0  
Since 1 June heating degree days 0 0  
Since 1 July heating degree days 0 0  
Cooling Degree Days 20 18  
Month to date cooling degree days 190 180  
Year to date cooling degree days 2594 2328  
Since 1 June cooling degree days 1242 1219  
Growing Degree Days 34 (Base 50)    
Moisture  
Dew Point 74 °F    
Average Humidity 69    
Maximum Humidity 91    
Minimum Humidity 46    
Precipitation  
Precipitation 0.15 in 0.25 in 3.60 in (1968)
Month to date precipitation 4.99 2.32  
Year to date precipitation 38.42 35.09  
Snow  
Snow 0.00 in - - ()
Month to date snowfall 0.0  
Since 1 June snowfall 0.0  
Since 1 July snowfall 0.0  
Snow Depth 0.00 in    
Sea Level Pressure  
Sea Level Pressure 30.04 in    
Wind  
Wind Speed 6 mph (South)    
Max Wind Speed 16 mph    
Max Gust Speed 22 mph    
Visibility 10 miles    
Events Rain , Thunderstorm    
T = Trace of Precipitation, MM = Missing Value Source: NWS Daily Summary

Daily Weather History Graph

Daily Weather History Graph

Search for Another Location

Airport:

Trip Planner

Search our weather history database for the weather conditions in past years. The results will help you decide how hot, cold, wet, or windy it might be!

Date:

Astronomy

Aug. 10, 2014 Rise Set
Actual Time 6:49 AM EDT 8:01 PM EDT
Civil Twilight 6:25 AM EDT 8:25 PM EDT
Nautical Twilight 5:56 AM EDT 8:54 PM EDT
Astronomical Twilight 5:26 AM EDT 9:24 PM EDT
Moon 7:54 PM EDT (8/10) 6:35 AM EDT (8/10)
Length of Visible Light 14h 00m
Length of Day
13h 11m
Full, 100% of the Moon is Illuminated
Aug 10
Full
Aug 10
Full
Aug 17
Last Quarter
Aug 25
New
Sep 2
First Quarter

Hourly Weather History & Observations

Time (EDT) Temp. Heat Index Dew Point Humidity Pressure Visibility Wind Dir Wind Speed Gust Speed Precip Events Conditions
12:53 AM 81.0 °F 86.7 °F 75.0 °F 82% 30.06 in 10.0 mi Calm Calm - N/A   Clear
1:53 AM 79.0 °F - 75.0 °F 88% 30.05 in 10.0 mi Calm Calm - N/A   Clear
2:53 AM 78.1 °F - 73.9 °F 87% 30.04 in 10.0 mi Calm Calm - N/A   Clear
3:53 AM 78.1 °F - 73.9 °F 87% 30.03 in 10.0 mi SSW 4.6 mph - N/A   Partly Cloudy
4:53 AM 79.0 °F - 73.9 °F 84% 30.03 in 10.0 mi Calm Calm - N/A   Mostly Cloudy
5:53 AM 78.1 °F - 73.9 °F 87% 30.03 in 10.0 mi Calm Calm - N/A   Partly Cloudy
6:53 AM 78.1 °F - 73.9 °F 87% 30.04 in 10.0 mi Calm Calm - N/A   Scattered Clouds
7:53 AM 80.1 °F 85.4 °F 75.9 °F 87% 30.05 in 10.0 mi Calm Calm - N/A   Scattered Clouds
8:53 AM 84.0 °F 91.9 °F 75.0 °F 74% 30.06 in 10.0 mi WSW 4.6 mph - N/A   Scattered Clouds
9:53 AM 86.0 °F 96.0 °F 75.9 °F 72% 30.07 in 10.0 mi SSW 6.9 mph - N/A   Mostly Cloudy
10:53 AM 88.0 °F 98.5 °F 75.9 °F 67% 30.07 in 10.0 mi SW 4.6 mph - N/A   Mostly Cloudy
11:51 AM 89.6 °F 98.2 °F 73.4 °F 59% 30.08 in 10.0 mi WSW 6.9 mph - N/A   Mostly Cloudy
11:53 AM 90.0 °F 97.9 °F 73.0 °F 57% 30.08 in 10.0 mi WSW 4.6 mph - N/A   Mostly Cloudy
11:56 AM 90.0 °F 97.9 °F 73.0 °F 57% 30.07 in 10.0 mi Variable 5.8 mph - N/A   Mostly Cloudy
12:53 PM 91.0 °F 100.4 °F 73.9 °F 57% 30.06 in 10.0 mi WNW 6.9 mph - N/A   Mostly Cloudy
1:53 PM 93.0 °F 99.0 °F 70.0 °F 47% 30.04 in 10.0 mi WSW 6.9 mph - N/A   Mostly Cloudy
2:53 PM 91.0 °F 100.4 °F 73.9 °F 57% 30.02 in 10.0 mi SE 11.5 mph - N/A   Mostly Cloudy
3:53 PM 90.0 °F 100.2 °F 75.0 °F 61% 30.01 in 10.0 mi SE 12.7 mph - N/A   Mostly Cloudy
4:53 PM 91.0 °F 102.9 °F 75.9 °F 61% 30.00 in 10.0 mi SE 12.7 mph - N/A   Mostly Cloudy
5:53 PM 89.1 °F 100.2 °F 75.9 °F 65% 29.99 in 10.0 mi SE 11.5 mph - N/A   Mostly Cloudy
6:53 PM 88.0 °F 98.5 °F 75.9 °F 67% 30.00 in 10.0 mi SE 9.2 mph - N/A   Mostly Cloudy
7:53 PM 86.0 °F 95.1 °F 75.0 °F 70% 30.00 in 10.0 mi SSE 11.5 mph - N/A   Mostly Cloudy
8:22 PM 84.0 °F 89.0 °F 71.1 °F 65% 30.03 in 10.0 mi NNW 11.5 mph 21.9 mph N/A   Mostly Cloudy
8:33 PM 82.9 °F 88.0 °F 72.0 °F 69% 30.04 in 10.0 mi NW 12.7 mph - N/A Thunderstorm Thunderstorm
8:53 PM 78.1 °F - 72.0 °F 81% 30.04 in 3.0 mi North 8.1 mph - 0.07 in Rain , Thunderstorm Heavy Thunderstorms and Rain
9:36 PM 75.9 °F - 72.0 °F 87% 30.06 in 10.0 mi SSE 9.2 mph - 0.08 in   Mostly Cloudy
9:53 PM 75.9 °F - 72.0 °F 87% 30.05 in 10.0 mi ESE 9.2 mph - 0.08 in   Mostly Cloudy
10:53 PM 77.0 °F - 73.0 °F 88% 30.06 in 10.0 mi SE 6.9 mph - 0.00 in   Mostly Cloudy
11:53 PM 79.0 °F - 73.0 °F 82% 30.04 in 10.0 mi SSE 8.1 mph - N/A   Mostly Cloudy